Weather History for KLVM - August, 2013

Change the Weather History Date:

Monday, August 19, 2013

  Actual Average Record
Temperature  
Mean Temperature 75 °F 65 °F  
Max Temperature 97 °F 84 °F 98 °F (2008)
Min Temperature 53 °F 47 °F 36 °F (1996)
Degree Days  
Heating Degree Days 0 2  
Month to date heating degree days 26  
Since 1 June heating degree days 283  
Since 1 July heating degree days 76  
Cooling Degree Days 10 3  
Month to date cooling degree days 109 67  
Year to date cooling degree days 345 196  
Since 1 June cooling degree days 337 195  
Growing Degree Days 25 (Base 50)    
Moisture  
Dew Point 33 °F    
Average Humidity 31    
Maximum Humidity 54    
Minimum Humidity 7    
Precipitation  
Precipitation 0.00 in 0.03 in 0.67 in (1966)
Month to date precipitation 0.08 0.68  
Year to date precipitation 7.20 10.80  
Sea Level Pressure  
Sea Level Pressure 29.89 in    
Wind  
Wind Speed 11 mph (West)    
Max Wind Speed 29 mph    
Max Gust Speed 36 mph    
Visibility 10 miles    
Events      
T = Trace of Precipitation, MM = Missing Value Source: NWS Daily Summary

Daily Weather History Graph

Daily Weather History Graph

Search for Another Location

Airport or City:

Trip Planner

Search our weather history database for the weather conditions in past years. The results will help you decide how hot, cold, wet, or windy it might be!

Date:

Astronomy

Aug. 19, 2013 Rise Set
Actual Time 6:27 AM MDT 8:22 PM MDT
Civil Twilight 5:55 AM MDT 8:54 PM MDT
Nautical Twilight 5:16 AM MDT 9:33 PM MDT
Astronomical Twilight 4:32 AM MDT 10:16 PM MDT
Moon 7:15 PM MDT (8/19) 4:48 AM MDT (8/19)
Length of Visible Light 14h 58m
Length of Day
13h 55m
Waxing Gibbous, 97% of the Moon is Illuminated
Aug 19
Waxing Gibbous
Aug 20
Full
Aug 28
Last Quarter
Sep 5
New
Sep 12
First Quarter

Hourly Weather History & Observations

Time (MDT) Temp. Dew Point Humidity Pressure Visibility Wind Dir Wind Speed Gust Speed Precip Events Conditions
12:53 AM 64.9 °F 37.9 °F 37% 29.93 in 10.0 mi West 9.2 mph - N/A   Clear
1:53 AM 63.0 °F 37.9 °F 40% 29.93 in 10.0 mi West 4.6 mph - N/A   Clear
2:53 AM 57.0 °F 37.9 °F 49% 29.94 in 10.0 mi WNW 4.6 mph - N/A   Clear
3:53 AM 59.0 °F 39.0 °F 48% 29.94 in 10.0 mi West 10.4 mph - N/A   Clear
4:53 AM 59.0 °F 37.9 °F 46% 29.94 in 10.0 mi West 10.4 mph - N/A   Clear
5:53 AM 60.1 °F 39.0 °F 46% 29.95 in 10.0 mi WSW 12.7 mph - N/A   Clear
6:53 AM 54.0 °F 37.9 °F 55% 29.97 in 10.0 mi WNW 6.9 mph - N/A   Clear
7:53 AM 61.0 °F 39.9 °F 46% 29.97 in 10.0 mi NW 6.9 mph - N/A   Clear
8:53 AM 70.0 °F 41.0 °F 35% 29.98 in 10.0 mi NW 11.5 mph - N/A   Clear
9:53 AM 79.0 °F 39.0 °F 24% 29.95 in 10.0 mi West 15.0 mph - N/A   Clear
10:53 AM 82.0 °F 37.9 °F 21% 29.93 in 10.0 mi WNW 10.4 mph - N/A   Clear
11:53 AM 86.0 °F 39.0 °F 19% 29.91 in 10.0 mi West 10.4 mph 19.6 mph N/A   Clear
12:53 PM 91.9 °F 28.9 °F 11% 29.88 in 10.0 mi West 25.3 mph 29.9 mph N/A   Clear
1:53 PM 93.9 °F 28.9 °F 10% 29.87 in 10.0 mi West 17.3 mph 25.3 mph N/A   Clear
2:53 PM 93.9 °F 21.9 °F 7% 29.86 in 10.0 mi WNW 11.5 mph 29.9 mph N/A   Clear
3:53 PM 96.1 °F 25.0 °F 8% 29.81 in 10.0 mi WNW 20.7 mph 32.2 mph N/A   Clear
4:53 PM 95.0 °F 26.1 °F 9% 29.80 in 10.0 mi West 20.7 mph 34.5 mph N/A   Clear
5:53 PM 93.9 °F 27.0 °F 9% 29.79 in 10.0 mi WNW 17.3 mph 26.5 mph N/A   Clear
6:53 PM 91.9 °F 26.1 °F 9% 29.79 in 10.0 mi West 11.5 mph - N/A   Clear
7:53 PM 84.9 °F 30.0 °F 14% 29.80 in 10.0 mi West 4.6 mph - N/A   Clear
8:53 PM 75.9 °F 28.0 °F 17% 29.81 in 10.0 mi WSW 6.9 mph - N/A   Clear
9:53 PM 75.9 °F 27.0 °F 16% 29.83 in 10.0 mi South 5.8 mph - N/A   Clear
10:53 PM 70.0 °F 27.0 °F 20% 29.86 in 10.0 mi WSW 8.1 mph - N/A   Clear
11:53 PM 72.0 °F 27.0 °F 19% 29.85 in 10.0 mi West 10.4 mph - N/A   Clear